Home   Weather   Stornoway   Past weeks

Flag for United Kingdom Past Weather in Stornoway, Scotland, United Kingdom — Yesterday and Last 2 Weeks

Now
50 °F

Cool.


Feels Like: 45 °F
Forecast: 45 / 59 °F
Wind: 13 mph from Southeast

Location: Stornoway

Current Time: Apr 30, 2017 at 9:47:44 pm

Latest Report: Apr 30, 2017 at 9:20 pm


Visibility: N/A

Pressure: 29.71 "Hg

Humidity: 71%

Dew Point: 41 °F

Location of StornowayLocation

Past Weather in Stornoway — Graph

°F

Stornoway Temperature Yesterday

Maximum temperature yesterday: 55 °F (at 1:20 pm)
Minimum temperature yesterday: 46 °F (at 12:20 am)
Average temperature yesterday: 50 °F

High & Low Weather Summary for the Past Weeks

 TemperatureHumidityPressure
High59 °F (Apr 30, 2:50 pm)100% (Apr 16, 6:20 am)30.48 "Hg (Apr 16, 6:20 am)
Low32 °F (Apr 18, 1:20 am)47% (Apr 17, 3:50 pm)29.68 "Hg (Apr 30, 12:20 pm)
Average46 °F80%30.17 "Hg
* Reported Apr 15 8:20 pm — Apr 30 8:50 pm, Stornoway, Weather by CustomWeather, © 2017

Note: Actual official high and low records may vary slightly from our data, if they occured in-between our weather recording intervals... More about our weather records

Advertising

Stornoway Weather History for the Previous 24 Hours

Scroll right to see more
 ConditionsComfort  
Time TempWeatherWind HumidityBarometerVisibility
8:50 pm
Sun, Apr 30
50 °FCool.13 mph71%29.68 "HgN/A
8:20 pm52 °FCool.14 mph67%29.68 "HgN/A
7:50 pm52 °FCool.15 mph72%29.68 "HgN/A
7:20 pm54 °FCool.16 mph67%29.68 "HgN/A
6:50 pm54 °FSunny.17 mph67%29.68 "Hg10 mi
6:20 pm55 °FSunny.17 mph63%29.68 "Hg10 mi
5:50 pm57 °FSunny.16 mph51%29.68 "Hg10 mi
5:20 pm57 °FSunny.17 mph51%29.68 "Hg10 mi
4:50 pm57 °FSunny.15 mph55%29.68 "Hg10 mi
4:20 pm59 °FPassing clouds.16 mph51%29.68 "HgN/A
3:50 pm57 °FPassing clouds.16 mph51%29.68 "HgN/A
3:20 pm57 °FPassing clouds.12 mph55%29.71 "HgN/A
2:50 pm59 °FPassing clouds.14 mph55%29.71 "HgN/A
2:20 pm55 °FPassing clouds.13 mph59%29.71 "HgN/A
1:50 pm55 °FPassing clouds.16 mph59%29.71 "HgN/A
1:20 pm57 °FPassing clouds.20 mph59%29.71 "HgN/A
12:50 pm55 °FPassing clouds.22 mph63%29.68 "HgN/A
12:20 pm54 °FPassing clouds.18 mph67%29.68 "HgN/A
11:50 am54 °FPassing clouds.15 mph67%29.71 "HgN/A
11:20 am52 °FCool.12 mph72%29.71 "HgN/A
10:50 am54 °FCool.16 mph67%29.71 "HgN/A
10:20 am52 °FCool.18 mph72%29.71 "HgN/A
9:50 am52 °FCool.15 mph72%29.71 "HgN/A
9:20 am52 °FCool.18 mph67%29.71 "HgN/A
8:50 am52 °FCool.15 mph67%29.71 "HgN/A
8:20 am52 °FCool.17 mph72%29.71 "HgN/A
7:50 am50 °FCool.16 mph71%29.71 "HgN/A
7:20 am50 °FCool.15 mph76%29.71 "HgN/A
6:50 am48 °FCool.16 mph82%29.74 "HgN/A
6:20 am48 °FCool.12 mph82%29.74 "HgN/A
5:50 am48 °FCool.13 mph82%29.74 "HgN/A
5:20 am48 °FCool.12 mph82%29.74 "HgN/A
4:50 am48 °FCool.13 mph82%29.74 "HgN/A
4:20 am48 °FCool.14 mph76%29.74 "HgN/A
3:50 am50 °FCool.17 mph71%29.74 "HgN/A
3:20 am48 °FCool.17 mph76%29.74 "HgN/A
2:50 am48 °FCool.10 mph82%29.74 "HgN/A
2:20 am48 °FCool.15 mph76%29.74 "HgN/A
1:50 am48 °FCool.9 mph82%29.74 "HgN/A
1:20 am50 °FCool.12 mph71%29.74 "HgN/A
12:50 am48 °FCool.12 mph82%29.77 "HgN/A
12:20 am48 °FCool.15 mph82%29.77 "HgN/A
11:50 pm
Sat, Apr 29
48 °FCool.12 mph87%29.77 "HgN/A
11:20 pm50 °FCool.9 mph76%29.77 "HgN/A
10:50 pm50 °FCool.8 mph82%29.77 "HgN/A
10:20 pm50 °FCool.9 mph76%29.77 "HgN/A
9:50 pm50 °FCool.10 mph82%29.74 "HgN/A
9:20 pm50 °FCool.13 mph76%29.74 "HgN/A
Weather by CustomWeather, © 2017

See weather overviewHow to use our weather pages